DELTA 1 DEB, 2118

Orbit data source: Space-Track

DELTA 1 DEB, 2118 is space debris in SSO originally from a launch on Thu, 03 Feb 1966 UTC launched from the Air Force Eastern Test Range (AFETR). Debris objects in space refer to the collection of defunct objects orbiting the Earth. Examples of debris include non-operational satellites, rocket bodies, and fragments generated from explosions, collisions, or faulty payload assembly.

Loading next visibility...
Identifier
2118, 1966-008D
Orbit
SSO
Country
Flag of USUS
Related business
Manufacturer
Unknown
Mission
Spacecraft
Bus & Motor
Unknown
Mass
~1 kg wet, ~1 kg dry
Launch date (UTC)
1966-02-03 (60 years ago)
Launch vehicle
Unknown
Launch site
Air Force Eastern Test Range (AFETR)
Object type
Payload
Rocket body
Debris
Shape & HBR
Unknown
Radar Cross Section
Small (<0.1 m²)

Expand to show TLE details & history
Last TLE update: 14 hours ago

TLE from 14 hours ago
0 DELTA 1 DEB
1 02118U 66008D   25348.65143712  .00000736  00000-0  19556-3 0  9998
2 02118  98.0322 124.9213 0127502  69.0673 292.4112 14.46614744109145
Epoch: 2025-12-14T15:38Z
TLE epoch observation values (Epoch: 2025-12-14T15:38:04.167Z)
Latitude
-0.00002°
Longitude
166.84265°
Altitude
706.102 km
Speed
7.52 km/s
True Right ascension
08h 19m 41s
True Declination
0° 00' 00"
Sunlit
Object was in full shadow at epoch
Visualization orbit readout
Latitude
Unknown
Longitude
Unknown
Altitude
Unknown
Speed
Unknown
Apparent Right ascension
Unknown
Apparent Declination
Unknown
Sunlit
N/A
Visualization observer readout
Local Sidereal Time
04:19:21
Azimuth
Unknown
Elevation
Unknown
Doppler factor
Unknown
Orbital elements
Apogee altitude
824.496 km
Perigee altitude
643.139 km
Semi-major axis
7,111.954 km
Eccentricity
0.01275
Inclination
98.0322°
RAAN
124.9213°
Arg. of periapsis
69.0673°
True anomaly
291.05236°
Mean anomaly
292.4112°
Eccentric anomaly
291.73259°
Mean motion
3.61876 °/min
Orbital period
99.48 mins
BSTAR
0.00019556
Loading maneuver chart data...
Computing Atmospheric mass density...
Loading historical data...
Loading historical data...
Loading historical data...
Loading historical data...
Loading historical data...
Loading historical data...
Loading historical data...
Other satellites on launch #8 in the year 1966 (1966-02-03 UTC)

Documentation

Showing up to 5 results
|